timestamp,wind_dir_avg,wind_spd_avg,wind_spd_max_dir,wind_spd_gust,battery_voltage,lat,long
2021-05-03 00:04:01+00:00,210.0,4.96,212.0,5.56,13.05,47.59359,-54.27349
2021-05-03 00:14:01+00:00,217.0,4.54,230.0,5.15,12.65,47.59359,-54.27349
2021-05-03 00:24:01+00:00,221.0,8.11,222.0,9.36,12.65,47.59359,-54.27349
2021-05-03 00:34:01+00:00,217.0,8.34,216.0,9.69,12.65,47.59359,-54.27349
2021-05-03 00:44:01+00:00,223.0,11.05,222.0,12.38,12.65,47.59359,-54.27349
2021-05-03 00:54:01+00:00,221.0,10.23,226.0,11.93,12.65,47.59359,-54.27349
2021-05-03 01:04:01+00:00,224.0,9.94,225.0,11.81,12.65,47.59359,-54.27349
2021-05-03 01:14:01+00:00,224.0,9.39,227.0,10.76,12.57,47.59359,-54.27349
2021-05-03 01:24:01+00:00,225.0,9.0,226.0,10.87,12.57,47.59359,-54.27349
2021-05-03 01:34:01+00:00,225.0,8.27,214.0,9.85,12.57,47.59359,-54.27349
2021-05-03 01:44:01+00:00,227.0,9.96,223.0,13.13,12.57,47.59359,-54.27349
2021-05-03 01:54:01+00:00,210.0,8.61,210.0,9.41,12.57,47.59359,-54.27349
2021-05-03 02:04:01+00:00,210.0,10.49,209.0,12.04,12.57,47.59359,-54.27349
2021-05-03 02:14:00+00:00,211.0,10.27,215.0,11.75,12.57,47.59359,-54.27349
2021-05-03 02:24:00+00:00,209.0,9.99,210.0,11.63,12.57,47.59359,-54.27349
2021-05-03 02:34:00+00:00,207.0,9.63,208.0,11.19,12.57,47.59359,-54.27349
2021-05-03 02:44:00+00:00,210.0,9.97,205.0,11.4,12.57,47.59359,-54.27349
2021-05-03 02:54:00+00:00,213.0,10.65,223.0,12.92,12.57,47.59359,-54.27349
2021-05-03 03:04:00+00:00,213.0,11.47,215.0,13.19,12.57,47.59359,-54.27349
2021-05-03 03:14:00+00:00,214.0,11.27,208.0,12.56,12.49,47.59359,-54.27349
2021-05-03 03:24:00+00:00,212.0,10.49,212.0,11.49,12.49,47.59359,-54.27349
2021-05-03 03:34:00+00:00,216.0,10.94,218.0,12.11,12.49,47.59359,-54.27349
2021-05-03 03:44:00+00:00,215.0,10.62,214.0,11.98,12.49,47.59359,-54.27349
2021-05-03 03:54:00+00:00,218.0,11.31,217.0,12.53,12.49,47.59359,-54.27349
2021-05-03 04:04:00+00:00,218.0,8.71,216.0,10.1,12.49,47.59359,-54.27349
2021-05-03 04:14:01+00:00,212.0,10.08,216.0,11.62,12.49,47.59359,-54.27349
2021-05-03 04:24:01+00:00,222.0,8.01,224.0,9.37,12.49,47.59359,-54.27349
2021-05-03 04:34:01+00:00,224.0,8.07,221.0,9.11,12.49,47.59359,-54.27349
2021-05-03 04:44:01+00:00,229.0,6.32,232.0,7.27,12.49,47.59359,-54.27349
2021-05-03 04:54:01+00:00,225.0,5.47,219.0,6.59,12.49,47.59359,-54.27349
2021-05-03 05:04:01+00:00,221.0,5.03,229.0,5.81,12.49,47.59359,-54.27349
2021-05-03 05:14:01+00:00,212.0,7.04,210.0,7.98,12.49,47.59359,-54.27349
2021-05-03 05:24:01+00:00,225.0,5.53,229.0,6.39,12.49,47.59359,-54.27349
2021-05-03 05:34:01+00:00,219.0,5.07,213.0,6.4,12.49,47.59359,-54.27349
2021-05-03 05:44:01+00:00,216.0,5.74,211.0,6.94,12.49,47.59359,-54.27349
2021-05-03 05:54:01+00:00,209.0,6.33,211.0,7.27,12.49,47.59359,-54.27349
2021-05-03 06:04:01+00:00,210.0,8.57,210.0,9.83,12.49,47.59359,-54.27349
2021-05-03 06:14:00+00:00,211.0,6.98,217.0,8.09,12.41,47.59359,-54.27349
2021-05-03 06:24:00+00:00,226.0,5.74,219.0,8.3,12.41,47.59359,-54.27349
2021-05-03 06:34:00+00:00,251.0,5.07,246.0,6.53,12.41,47.59359,-54.27349
2021-05-03 06:44:00+00:00,232.0,4.66,235.0,5.47,12.41,47.59359,-54.27349
2021-05-03 06:54:00+00:00,211.0,5.36,208.0,6.17,12.41,47.59359,-54.27349
2021-05-03 07:04:00+00:00,215.0,4.91,217.0,5.56,12.41,47.59359,-54.27349
2021-05-03 07:14:00+00:00,214.0,5.31,211.0,6.28,12.41,47.59359,-54.27349
2021-05-03 07:24:00+00:00,201.0,6.48,204.0,7.15,12.41,47.59359,-54.27349
2021-05-03 07:34:00+00:00,208.0,6.32,208.0,6.99,12.41,47.59359,-54.27349
2021-05-03 07:44:00+00:00,209.0,6.74,214.0,7.44,12.41,47.59359,-54.27349
2021-05-03 07:54:00+00:00,210.0,6.77,211.0,7.84,12.41,47.59359,-54.27349
2021-05-03 08:04:00+00:00,206.0,5.93,203.0,6.61,12.41,47.59359,-54.27349
2021-05-03 08:14:00+00:00,209.0,5.56,207.0,6.16,12.41,47.59359,-54.27349
2021-05-03 08:24:00+00:00,212.0,5.17,214.0,5.86,12.41,47.59359,-54.27349
2021-05-03 08:34:00+00:00,207.0,6.03,209.0,6.8,12.41,47.59359,-54.27349
2021-05-03 08:44:00+00:00,209.0,5.85,211.0,6.32,12.41,47.59359,-54.27349
2021-05-03 08:54:00+00:00,218.0,6.01,218.0,6.85,12.41,47.59359,-54.27349
2021-05-03 09:04:00+00:00,208.0,6.59,204.0,7.19,12.41,47.59359,-54.27349
2021-05-03 09:14:00+00:00,209.0,6.77,205.0,7.68,12.41,47.59359,-54.27349
2021-05-03 09:24:00+00:00,209.0,6.16,211.0,6.62,12.41,47.59359,-54.27349
2021-05-03 09:34:00+00:00,200.0,5.93,199.0,6.74,12.41,47.59359,-54.27349
2021-05-03 09:44:00+00:00,204.0,7.34,208.0,7.99,12.41,47.59359,-54.27349
2021-05-03 09:54:00+00:00,205.0,7.01,207.0,8.0,12.41,47.59359,-54.27349
2021-05-03 10:04:00+00:00,208.0,6.23,211.0,6.97,12.41,47.59359,-54.27349
2021-05-03 10:14:01+00:00,219.0,5.02,220.0,5.65,13.13,47.59359,-54.27349
2021-05-03 10:24:01+00:00,203.0,4.53,200.0,5.16,13.13,47.59359,-54.27349
2021-05-03 10:34:01+00:00,197.0,4.65,198.0,4.92,13.13,47.59359,-54.27349
2021-05-03 10:44:01+00:00,201.0,5.71,197.0,7.34,13.13,47.59359,-54.27349
2021-05-03 10:54:01+00:00,216.0,4.66,224.0,5.33,13.13,47.59359,-54.27349
2021-05-03 11:04:01+00:00,205.0,4.5,203.0,5.46,13.13,47.59359,-54.27349
2021-05-03 11:14:01+00:00,208.0,5.74,211.0,6.6,13.68,47.59359,-54.27349
2021-05-03 11:24:01+00:00,213.0,8.04,212.0,8.8,13.68,47.59359,-54.27349
2021-05-03 11:34:01+00:00,217.0,9.43,220.0,10.54,13.68,47.59359,-54.27349
2021-05-03 11:44:01+00:00,218.0,9.52,216.0,10.36,13.68,47.59359,-54.27349
2021-05-03 11:54:01+00:00,217.0,9.32,218.0,10.07,13.68,47.59359,-54.27349
2021-05-03 12:04:01+00:00,218.0,6.99,225.0,8.15,13.68,47.59359,-54.27349
2021-05-03 12:14:01+00:00,228.0,6.64,235.0,8.59,13.68,47.59359,-54.27349
2021-05-03 12:24:01+00:00,245.0,9.42,260.0,13.95,13.68,47.59359,-54.27349
2021-05-03 12:34:01+00:00,206.0,9.62,209.0,11.19,13.68,47.59359,-54.27349
2021-05-03 12:44:01+00:00,198.0,8.11,197.0,9.33,13.68,47.59359,-54.27349
2021-05-03 12:54:01+00:00,206.0,6.68,207.0,7.27,13.68,47.59359,-54.27349
2021-05-03 13:04:01+00:00,216.0,7.66,217.0,9.24,13.68,47.59359,-54.27349
2021-05-03 13:14:01+00:00,208.0,8.48,203.0,9.73,14.32,47.59359,-54.27349
2021-05-03 13:24:01+00:00,209.0,8.83,214.0,11.24,14.32,47.59359,-54.27349
2021-05-03 13:34:01+00:00,211.0,9.77,208.0,11.04,14.32,47.59359,-54.27349
2021-05-03 13:44:01+00:00,206.0,10.05,205.0,11.24,14.32,47.59359,-54.27349
2021-05-03 13:54:01+00:00,214.0,9.7,214.0,11.14,14.32,47.59359,-54.27349
2021-05-03 14:04:01+00:00,227.0,9.76,232.0,12.67,14.32,47.59359,-54.27349
2021-05-03 14:14:01+00:00,232.0,8.28,234.0,9.43,14.08,47.59359,-54.27349
2021-05-03 14:24:01+00:00,229.0,8.73,223.0,9.62,14.08,47.59359,-54.27349
2021-05-03 14:34:01+00:00,225.0,8.36,220.0,9.79,14.08,47.59359,-54.27349
2021-05-03 14:44:01+00:00,230.0,6.75,229.0,7.55,14.08,47.59359,-54.27349
2021-05-03 14:54:01+00:00,232.0,10.08,235.0,11.42,14.08,47.59359,-54.27349
2021-05-03 15:04:01+00:00,232.0,8.91,232.0,9.76,14.08,47.59359,-54.27349
2021-05-03 15:14:01+00:00,229.0,8.53,232.0,9.77,13.84,47.59359,-54.27349
2021-05-03 15:24:01+00:00,242.0,11.92,237.0,13.21,13.84,47.59359,-54.27349
2021-05-03 15:34:01+00:00,252.0,12.92,253.0,15.03,13.84,47.59359,-54.27349
2021-05-03 15:44:01+00:00,239.0,11.49,242.0,14.71,13.84,47.59359,-54.27349
2021-05-03 15:54:01+00:00,250.0,11.54,252.0,13.13,13.84,47.59359,-54.27349
2021-05-03 16:04:01+00:00,249.0,12.58,243.0,14.89,13.84,47.59359,-54.27349
2021-05-03 16:14:01+00:00,263.0,13.71,260.0,15.65,13.76,47.59359,-54.27349
2021-05-03 16:24:01+00:00,253.0,11.62,251.0,13.85,13.76,47.59359,-54.27349
2021-05-03 16:34:01+00:00,255.0,12.39,256.0,14.35,13.76,47.59359,-54.27349
2021-05-03 16:44:01+00:00,251.0,13.64,250.0,15.84,13.76,47.59359,-54.27349
2021-05-03 16:54:01+00:00,250.0,11.82,249.0,15.73,13.76,47.59359,-54.27349
2021-05-03 17:04:01+00:00,255.0,13.87,250.0,16.25,13.76,47.59359,-54.27349
2021-05-03 17:14:01+00:00,263.0,12.62,260.0,14.28,13.84,47.59359,-54.27349
2021-05-03 17:24:01+00:00,264.0,10.75,261.0,12.55,13.84,47.59359,-54.27349
2021-05-03 17:34:01+00:00,251.0,12.11,247.0,13.48,13.84,47.59359,-54.27349
2021-05-03 17:44:01+00:00,261.0,11.04,259.0,12.79,13.84,47.59359,-54.27349
2021-05-03 17:54:01+00:00,258.0,13.8,259.0,15.92,13.84,47.59359,-54.27349
2021-05-03 18:04:01+00:00,254.0,11.81,256.0,15.23,13.84,47.59359,-54.27349
2021-05-03 18:14:01+00:00,269.0,15.16,269.0,20.44,13.76,47.59359,-54.27349
2021-05-03 18:24:01+00:00,272.0,12.98,270.0,15.64,13.76,47.59359,-54.27349
2021-05-03 18:34:01+00:00,265.0,14.03,263.0,15.8,13.76,47.59359,-54.27349
2021-05-03 18:44:01+00:00,264.0,14.08,265.0,18.46,13.76,47.59359,-54.27349
2021-05-03 18:54:01+00:00,262.0,11.02,266.0,12.33,13.76,47.59359,-54.27349
2021-05-03 19:04:01+00:00,268.0,10.52,263.0,13.84,13.76,47.59359,-54.27349
2021-05-03 19:14:01+00:00,270.0,11.29,269.0,14.66,13.84,47.59359,-54.27349
2021-05-03 19:24:01+00:00,272.0,13.33,269.0,14.58,13.84,47.59359,-54.27349
2021-05-03 19:34:01+00:00,272.0,12.81,277.0,15.52,13.84,47.59359,-54.27349
2021-05-03 19:44:01+00:00,277.0,12.78,281.0,15.32,13.84,47.59359,-54.27349
2021-05-03 19:54:01+00:00,282.0,10.12,277.0,12.74,13.84,47.59359,-54.27349
2021-05-03 20:04:01+00:00,272.0,9.77,271.0,11.24,13.84,47.59359,-54.27349
2021-05-03 20:14:01+00:00,271.0,8.77,269.0,10.88,13.76,47.59359,-54.27349
2021-05-03 20:24:01+00:00,267.0,8.86,269.0,10.75,13.76,47.59359,-54.27349
2021-05-03 20:34:01+00:00,266.0,8.54,268.0,9.48,13.76,47.59359,-54.27349
2021-05-03 20:44:01+00:00,275.0,6.11,270.0,6.61,13.76,47.59359,-54.27349
2021-05-03 20:54:01+00:00,300.0,10.69,296.0,13.17,13.76,47.59359,-54.27349
2021-05-03 21:04:01+00:00,282.0,8.18,281.0,10.61,13.76,47.59359,-54.27349
2021-05-03 21:14:01+00:00,288.0,8.34,287.0,11.51,13.76,47.59359,-54.27349
2021-05-03 21:24:01+00:00,279.0,13.97,278.0,14.93,13.76,47.59359,-54.27349
2021-05-03 21:34:01+00:00,280.0,11.63,280.0,14.1,13.76,47.59359,-54.27349
2021-05-03 21:44:01+00:00,278.0,6.24,280.0,7.01,13.76,47.59359,-54.27349
2021-05-03 21:54:01+00:00,274.0,6.66,275.0,7.35,13.76,47.59359,-54.27349
2021-05-03 22:04:01+00:00,275.0,12.27,277.0,15.09,13.76,47.59359,-54.27349
2021-05-03 22:14:01+00:00,271.0,12.88,272.0,14.72,13.53,47.59359,-54.27349
2021-05-03 22:24:01+00:00,271.0,13.27,271.0,14.78,13.53,47.59359,-54.27349
2021-05-03 22:34:01+00:00,276.0,7.97,277.0,9.36,13.53,47.59359,-54.27349
2021-05-03 22:44:01+00:00,272.0,9.46,272.0,13.92,13.53,47.59359,-54.27349
2021-05-03 22:54:01+00:00,272.0,13.47,280.0,15.0,13.53,47.59359,-54.27349
2021-05-03 23:04:01+00:00,272.0,12.82,277.0,14.8,13.53,47.59359,-54.27349
2021-05-03 23:14:01+00:00,275.0,12.18,276.0,14.44,12.97,47.59359,-54.27349
2021-05-03 23:24:01+00:00,271.0,12.32,272.0,14.33,12.97,47.59359,-54.27349
2021-05-03 23:34:01+00:00,275.0,12.42,275.0,14.24,12.97,47.59359,-54.27349
2021-05-03 23:44:01+00:00,276.0,12.86,279.0,14.86,12.97,47.59359,-54.27349
2021-05-03 23:54:01+00:00,279.0,13.67,283.0,15.01,12.97,47.59359,-54.27349
